Location: Dillon
(41.1766°N, 107.0923°W)
Time: 06:48:51
(UTC+00:00)

QB50P2 - Pass Details

Date: 30 June 2022
Orbit: 590 x 605 km, 97.9° (Epoch: 17 August)

Event Time Altitude Azimuth Distance (km) Brightness Sun altitude
Rises 07:59:02 0° 21° (NNE) 2,858 ? -24.7°
Reaches altitude 10° 08:01:21 10° 30° (NNE) 1,953 ? -24.7°
Maximum altitude 08:05:17 36° 98° (E) 961 ? -24.5°
Enters shadow 08:05:18 36° 99° (E) 961 ? -24.5°
